MET-2/21
1 22782U 93055A   05258.73801048  .00000122  00000-0  96971-4 0  3023
2 22782 082.5505 189.1536 0021138 227.6192 132.3178 13.83594472608099
OKEAN-4
1 23317U 94066A   05258.81314920  .00000319  00000-0  36890-4 0  7338
2 23317 082.5417 172.8897 0021451 194.4082 165.6508 14.82225654589336
NOAA-14
1 23455U 94089A   05257.82735196  .00000310  00000-0  18888-3 0 07650
2 23455 099.0809 307.5852 0010178 107.8479 252.3767 14.13597019552160
SICH-1
1 23657U 95046A   05257.87947749  .00000994  00000-0  12410-3 0 05383
2 23657 082.5292 314.6162 0024038 184.0297 176.0727 14.81231682541235
NOAA-15
1 25338U 98030A   05257.76483570  .00000030  00000-0  31134-4 0 01878
2 25338 098.5148 263.3813 0011628 096.8525 263.3985 14.24537586381505
RESURS
1 25394U 98043A   05257.93501548 -.00000013  00000-0  12890-4 0 02049
2 25394 098.5336 324.5640 0000655 219.4396 140.6734 14.24079105373228
FENGYUN1
1 25730U 99025A   05257.71715448 -.00000170  00000-0 -70068-4 0 05180
2 25730 098.6119 255.9397 0013871 202.4535 157.6047 14.11797776327141
OKEAN-0
1 25860U 99039A   05257.95303127  .00000045  00000-0  14139-4 0 05403
2 25860 097.7540 279.8845 0000618 110.5782 249.5504 14.73287652331222
NOAA-16
1 26536U 00055A   05257.77036200 -.00000075  00000-0 -15950-4 0 05192
2 26536 099.0232 216.7716 0010603 170.8444 189.2925 14.12271792256709
NOAA-17
1 27453U 02032A   05257.82550278  .00000062  00000-0  46097-4 0 05392
2 27453 098.6535 329.9549 0012422 151.8310 208.3545 14.23701403167590
NOAA-18
1 28654U 05018A   05257.84415488  .00000284  00000-0  18205-3 0 01535
2 28654 098.7495 202.5169 0013587 283.4815 076.4861 14.10881156016553
HUBBLE
1 20580U 90037B   05258.75943374  .00000890  00000-0  57092-4 0  4276
2 20580 028.4675 038.5874 0004235 154.6020 205.4782 14.99834054643857
UARS
1 21701U 91063B   05258.46687105 -.00006443  00000-0 -44630-3 0  5330
2 21701 056.9791 184.0702 0006518 101.8408 258.2588 15.03807547767079
PO-34
1 25520U 98064B   05258.73972639  .00001814  00000-0  80997-4 0  2755
2 25520 028.4563 066.8234 0005817 129.1068 231.0030 15.16431680380343
ISS
1 25544U 98067A   05259.03443287  .00023166  00000-0  17022-3 0  3652
2 25544 051.6435 155.7303 0002159 077.2968 122.3652 15.72995246389973
OO-38
1 26063U 00004C   05257.67747656 -.00000110  00000-0 -17648-4 0  4380
2 26063 100.2026 134.0412 0037029 162.9649 197.2850 14.35732633295132
NO-45
1 26932U 01043D   05258.75342598 -.00000013  00000-0  27268-4 0  1269
2 26932 067.0603 354.2020 0004074 250.9097 109.1573 14.29498786206742
